QPF
0.06 0.07 0.12 0.11 0.06 0.05 0.04 0.03 0.02 0.01 0.01 0.01 0.02 0.01 0.01 0.02 0.01 0.00 0.01 0.02 0.03 0.04 0.05 0.06 0.05 0.05 0.04 0.03 0.03 0.03 0.03 0.03 0.03 0.04 0.04 0.03 0.03 0.04 0.04 0.03 0.03 0.03 0.02
0.06 0.06 0.08 0.06 0.04 0.04 0.03 0.01 0.01 0.01 0.01 0.02 0.02 0.01 0.01 0.02 0.02 0.01 0.01 0.02 0.03 0.04 0.04 0.05 0.08 0.07 0.05 0.04 0.05 0.06 0.06 0.05 0.04 0.03 0.04 0.04 0.04 0.04 0.04 0.04 0.04 0.04 0.03
0.03 0.03 0.04 0.03 0.02 0.02 0.02 0.02 0.02 0.02 0.02 0.02 0.03 0.03 0.01 0.01 0.02 0.02 0.02 0.01 0.02 0.03 0.03 0.04 0.05 0.07 0.06 0.07 0.07 0.07 0.08 0.05 0.04 0.03 0.03 0.03 0.04 0.03 0.04 0.04 0.04 0.04 0.04
0.03 0.03 0.03 0.03 0.02 0.02 0.02 0.02 0.03 0.03 0.02 0.02 0.02 0.02 0.01 0.01 0.01 0.02 0.02 0.02 0.03 0.03 0.03 0.04 0.05 0.05 0.07 0.08 0.08 0.08 0.08 0.05 0.04 0.04 0.04 0.04 0.03 0.03 0.03 0.04 0.05 0.05 0.05
0.03 0.03 0.02 0.03 0.03 0.02 0.02 0.02 0.03 0.03 0.03 0.03 0.02 0.02 0.01 0.01 0.01 0.01 0.01 0.02 0.04 0.03 0.03 0.04 0.05 0.05 0.06 0.08 0.09 0.11 0.11 0.08 0.07 0.06 0.06 0.05 0.05 0.04 0.04 0.05 0.07 0.07 0.05
0.03 0.03 0.02 0.02 0.02 0.02 0.02 0.02 0.02 0.02 0.03 0.04 0.03 0.03 0.03 0.02 0.02 0.01 0.01 0.01 0.04 0.05 0.05 0.05 0.04 0.03 0.06 0.09 0.09 0.11 0.14 0.14 0.13 0.11 0.08 0.08 0.07 0.05 0.04 0.05 0.08 0.08 0.06
0.03 0.03 0.02 0.02 0.02 0.03 0.03 0.03 0.03 0.04 0.04 0.04 0.02 0.03 0.03 0.02 0.02 0.02 0.02 0.02 0.03 0.04 0.06 0.06 0.05 0.04 0.03 0.05 0.06 0.08 0.12 0.15 0.15 0.13 0.11 0.10 0.08 0.05 0.03 0.04 0.05 0.05 0.04
0.05 0.03 0.02 0.02 0.03 0.05 0.06 0.06 0.05 0.05 0.05 0.04 0.04 0.05 0.04 0.03 0.03 0.02 0.02 0.02 0.02 0.02 0.03 0.04 0.05 0.04 0.04 0.03 0.03 0.04 0.07 0.11 0.12 0.13 0.11 0.10 0.10 0.08 0.06 0.06 0.06 0.05 0.04
0.06 0.04 0.03 0.03 0.04 0.05 0.07 0.08 0.08 0.07 0.06 0.05 0.05 0.06 0.05 0.03 0.03 0.02 0.02 0.02 0.03 0.03 0.03 0.04 0.04 0.04 0.04 0.04 0.04 0.03 0.04 0.06 0.09 0.11 0.13 0.12 0.10 0.09 0.09 0.09 0.10 0.06 0.05
0.06 0.05 0.05 0.05 0.07 0.08 0.08 0.10 0.09 0.08 0.07 0.06 0.06 0.05 0.05 0.04 0.03 0.03 0.02 0.01 0.02 0.02 0.03 0.04 0.05 0.05 0.04 0.03 0.03 0.03 0.05 0.04 0.06 0.09 0.12 0.13 0.11 0.10 0.09 0.09 0.11 0.09 0.07
0.06 0.06 0.05 0.06 0.07 0.08 0.10 0.11 0.10 0.09 0.07 0.06 0.05 0.05 0.05 0.05 0.04 0.04 0.03 0.02 0.01 0.02 0.02 0.03 0.05 0.06 0.05 0.05 0.05 0.05 0.05 0.06 0.06 0.06 0.08 0.10 0.10 0.09 0.07 0.07 0.09 0.10 0.09
0.05 0.04 0.05 0.06 0.06 0.07 0.09 0.10 0.09 0.07 0.07 0.08 0.08 0.08 0.07 0.07 0.06 0.05 0.04 0.03 0.02 0.01 0.02 0.02 0.04 0.04 0.04 0.04 0.04 0.04 0.04 0.05 0.07 0.07 0.07 0.07 0.09 0.09 0.07 0.07 0.08 0.09 0.09
0.05 0.03 0.03 0.04 0.04 0.04 0.06 0.08 0.07 0.05 0.06 0.07 0.10 0.11 0.10 0.09 0.08 0.06 0.05 0.04 0.02 0.02 0.02 0.02 0.03 0.03 0.02 0.02 0.03 0.02 0.03 0.04 0.06 0.05 0.06 0.07 0.07 0.06 0.06 0.07 0.08 0.08 0.08
0.05 0.04 0.03 0.03 0.03 0.04 0.05 0.07 0.07 0.07 0.07 0.08 0.08 0.08 0.08 0.08 0.08 0.06 0.05 0.04 0.02 0.01 0.01 0.01 0.02 0.02 0.02 0.02 0.03 0.03 0.03 0.04 0.04 0.05 0.06 0.06 0.06 0.05 0.05 0.06 0.08 0.08 0.07
0.03 0.03 0.03 0.03 0.03 0.03 0.04 0.05 0.06 0.08 0.09 0.07 0.05 0.05 0.05 0.06 0.07 0.06 0.05 0.04 0.03 0.02 0.01 0.01 0.02 0.02 0.03 0.03 0.03 0.03 0.03 0.04 0.04 0.05 0.06 0.05 0.05 0.06 0.06 0.06 0.06 0.06 0.06
0.02 0.03 0.03 0.04 0.04 0.04 0.05 0.05 0.04 0.06 0.05 0.04 0.04 0.05 0.05 0.05 0.05 0.06 0.05 0.04 0.04 0.04 0.02 0.02 0.02 0.02 0.03 0.03 0.04 0.03 0.03 0.03 0.03 0.02 0.02 0.03 0.03 0.05 0.07 0.08 0.06 0.05 0.06
0.02 0.03 0.04 0.05 0.06 0.06 0.06 0.06 0.05 0.06 0.04 0.03 0.03 0.04 0.05 0.05 0.04 0.04 0.05 0.04 0.04 0.04 0.02 0.02 0.01 0.02 0.02 0.02 0.03 0.03 0.02 0.02 0.02 0.02 0.02 0.01 0.01 0.01 0.03 0.04 0.05 0.05 0.05
0.06 0.05 0.05 0.05 0.06 0.06 0.07 0.07 0.05 0.05 0.04 0.04 0.05 0.04 0.03 0.03 0.02 0.03 0.04 0.04 0.03 0.04 0.03 0.02 0.01 0.02 0.02 0.03 0.02 0.02 0.01 0.01 0.01 0.02 0.02 0.02 0.01 0.01 0.01 0.01 0.02 0.02 0.02
0.06 0.05 0.04 0.03 0.04 0.06 0.07 0.07 0.07 0.06 0.04 0.04 0.05 0.04 0.03 0.04 0.03 0.04 0.04 0.04 0.03 0.03 0.03 0.02 0.01 0.02 0.02 0.03 0.02 0.01 0.01 0.01 0.01 0.01 0.02 0.02 0.01 0.01 0.01 0.01 0.01 0.01 0.01
0.06 0.05 0.03 0.03 0.03 0.05 0.07 0.07 0.07 0.06 0.05 0.04 0.03 0.03 0.03 0.03 0.04 0.04 0.04 0.04 0.04 0.04 0.04 0.03 0.02 0.02 0.02 0.02 0.02 0.01 0.01 0.01 0.01 0.01 0.02 0.01 0.02 0.02 0.01 0.01 0.01 0.01 0.01
0.05 0.05 0.04 0.04 0.05 0.05 0.04 0.04 0.05 0.07 0.06 0.04 0.03 0.03 0.03 0.04 0.05 0.05 0.05 0.05 0.05 0.05 0.04 0.04 0.04 0.03 0.02 0.01 0.01 0.02 0.02 0.02 0.02 0.01 0.01 0.01 0.01 0.01 0.01 0.01 0.01 0.01 0.01
0.06 0.07 0.06 0.05 0.05 0.05 0.05 0.06 0.06 0.06 0.06 0.05 0.04 0.04 0.04 0.04 0.05 0.05 0.06 0.06 0.06 0.05 0.05 0.04 0.04 0.03 0.02 0.02 0.02 0.02 0.02 0.02 0.01 0.01 0.01 0.01 0.02 0.02 0.02 0.02 0.02 0.02 0.01
0.07 0.06 0.06 0.05 0.04 0.04 0.05 0.06 0.07 0.06 0.05 0.04 0.04 0.04 0.05 0.04 0.05 0.05 0.05 0.04 0.04 0.04 0.03 0.04 0.03 0.02 0.02 0.02 0.03 0.03 0.02 0.02 0.02 0.02 0.03 0.02 0.01 0.01 0.01 0.02 0.03 0.02 0.02
0.08 0.09 0.07 0.06 0.05 0.05 0.06 0.07 0.08 0.07 0.06 0.05 0.04 0.03 0.03 0.03 0.05 0.05 0.03 0.03 0.02 0.02 0.02 0.03 0.02 0.02 0.02 0.04 0.04 0.03 0.03 0.03 0.02 0.03 0.03 0.02 0.01 0.01 0.02 0.02 0.03 0.03 0.03
0.08 0.08 0.06 0.07 0.08 0.09 0.09 0.09 0.11 0.10 0.08 0.06 0.04 0.04 0.04 0.05 0.07 0.07 0.05 0.04 0.02 0.02 0.03 0.04 0.03 0.03 0.04 0.04 0.05 0.04 0.03 0.03 0.02 0.02 0.03 0.03 0.03 0.04 0.04 0.04 0.05 0.05 0.04
0.08 0.09 0.09 0.09 0.08 0.09 0.11 0.11 0.12 0.12 0.09 0.08 0.06 0.06 0.08 0.09 0.11 0.12 0.09 0.07 0.04 0.03 0.04 0.04 0.04 0.03 0.03 0.04 0.05 0.04 0.03 0.04 0.03 0.03 0.03 0.03 0.03 0.05 0.05 0.05 0.06 0.06 0.04
MSLP
1017.18 1017.44 1017.58 1017.62 1017.59 1017.52 1017.47 1017.44 1017.48 1017.58 1017.73 1017.91 1018.09 1018.26 1018.41 1018.53 1018.64 1018.75 1018.88 1019.05 1019.24 1019.48 1019.73 1019.99 1020.24 1020.48 1020.69 1020.87 1021.03 1021.16 1021.29 1021.41 1021.53 1021.66 1021.78 1021.90 1022.02 1022.13 1022.22 1022.29 1022.35 1022.38 1022.39
1017.20 1017.48 1017.64 1017.72 1017.72 1017.68 1017.64 1017.62 1017.64 1017.72 1017.83 1017.97 1018.11 1018.24 1018.35 1018.44 1018.52 1018.61 1018.73 1018.88 1019.07 1019.31 1019.57 1019.86 1020.14 1020.40 1020.63 1020.82 1020.99 1021.12 1021.24 1021.36 1021.47 1021.59 1021.72 1021.85 1021.97 1022.09 1022.19 1022.25 1022.28 1022.28 1022.25
1017.00 1017.30 1017.51 1017.64 1017.70 1017.72 1017.72 1017.72 1017.75 1017.80 1017.89 1017.99 1018.09 1018.19 1018.27 1018.33 1018.39 1018.46 1018.56 1018.69 1018.88 1019.10 1019.37 1019.65 1019.94 1020.21 1020.45 1020.65 1020.82 1020.96 1021.08 1021.19 1021.31 1021.43 1021.56 1021.70 1021.84 1021.97 1022.07 1022.13 1022.15 1022.12 1022.05
1016.62 1016.94 1017.20 1017.39 1017.53 1017.62 1017.67 1017.71 1017.75 1017.80 1017.87 1017.94 1018.02 1018.08 1018.14 1018.20 1018.24 1018.31 1018.39 1018.51 1018.67 1018.88 1019.12 1019.38 1019.65 1019.92 1020.15 1020.36 1020.53 1020.68 1020.80 1020.92 1021.04 1021.17 1021.31 1021.45 1021.60 1021.74 1021.84 1021.91 1021.93 1021.89 1021.81
1016.15 1016.47 1016.76 1017.01 1017.21 1017.37 1017.48 1017.56 1017.63 1017.68 1017.74 1017.80 1017.86 1017.92 1017.98 1018.03 1018.08 1018.15 1018.23 1018.33 1018.47 1018.64 1018.84 1019.07 1019.31 1019.54 1019.76 1019.96 1020.14 1020.29 1020.42 1020.55 1020.67 1020.81 1020.96 1021.11 1021.27 1021.41 1021.52 1021.60 1021.63 1021.60 1021.53
1015.64 1015.94 1016.24 1016.52 1016.78 1016.99 1017.15 1017.28 1017.37 1017.44 1017.50 1017.56 1017.62 1017.69 1017.76 1017.84 1017.91 1017.99 1018.07 1018.16 1018.27 1018.40 1018.55 1018.72 1018.91 1019.11 1019.30 1019.48 1019.65 1019.81 1019.96 1020.10 1020.24 1020.38 1020.53 1020.69 1020.85 1020.99 1021.12 1021.21 1021.25 1021.26 1021.22
1015.13 1015.38 1015.67 1015.96 1016.24 1016.49 1016.70 1016.86 1016.98 1017.07 1017.15 1017.22 1017.30 1017.40 1017.51 1017.62 1017.73 1017.83 1017.92 1018.00 1018.08 1018.16 1018.25 1018.36 1018.49 1018.63 1018.79 1018.95 1019.12 1019.28 1019.44 1019.60 1019.75 1019.90 1020.06 1020.22 1020.37 1020.52 1020.64 1020.75 1020.83 1020.88 1020.90
1014.63 1014.82 1015.07 1015.35 1015.63 1015.90 1016.14 1016.33 1016.48 1016.60 1016.71 1016.81 1016.93 1017.06 1017.21 1017.37 1017.52 1017.65 1017.75 1017.83 1017.88 1017.91 1017.94 1017.98 1018.04 1018.12 1018.24 1018.38 1018.53 1018.71 1018.88 1019.05 1019.22 1019.39 1019.55 1019.70 1019.85 1019.99 1020.12 1020.25 1020.36 1020.46 1020.56
1014.12 1014.25 1014.44 1014.69 1014.97 1015.24 1015.50 1015.72 1015.91 1016.06 1016.20 1016.34 1016.50 1016.68 1016.87 1017.07 1017.26 1017.43 1017.54 1017.61 1017.63 1017.62 1017.58 1017.56 1017.55 1017.58 1017.65 1017.76 1017.91 1018.09 1018.28 1018.47 1018.65 1018.82 1018.98 1019.13 1019.27 1019.41 1019.56 1019.70 1019.86 1020.02 1020.20
1013.57 1013.63 1013.77 1013.99 1014.25 1014.53 1014.80 1015.05 1015.27 1015.46 1015.63 1015.81 1016.01 1016.23 1016.47 1016.71 1016.94 1017.12 1017.25 1017.31 1017.31 1017.26 1017.17 1017.08 1017.02 1016.99 1017.02 1017.11 1017.24 1017.41 1017.61 1017.81 1018.01 1018.19 1018.35 1018.50 1018.64 1018.79 1018.95 1019.12 1019.33 1019.56 1019.83
1012.95 1012.96 1013.06 1013.24 1013.49 1013.77 1014.06 1014.33 1014.58 1014.80 1015.00 1015.22 1015.45 1015.70 1015.97 1016.25 1016.50 1016.71 1016.86 1016.92 1016.90 1016.82 1016.70 1016.57 1016.45 1016.38 1016.36 1016.42 1016.53 1016.69 1016.89 1017.09 1017.29 1017.48 1017.65 1017.81 1017.96 1018.12 1018.31 1018.52 1018.79 1019.09 1019.45
1012.25 1012.23 1012.30 1012.47 1012.70 1012.98 1013.28 1013.56 1013.83 1014.07 1014.30 1014.53 1014.78 1015.06 1015.36 1015.66 1015.94 1016.18 1016.34 1016.42 1016.41 1016.32 1016.18 1016.02 1015.87 1015.76 1015.71 1015.73 1015.81 1015.95 1016.13 1016.33 1016.53 1016.72 1016.89 1017.07 1017.24 1017.43 1017.66 1017.93 1018.26 1018.64 1019.08
1011.51 1011.48 1011.54 1011.68 1011.91 1012.18 1012.47 1012.76 1013.02 1013.27 1013.50 1013.75 1014.01 1014.30 1014.62 1014.94 1015.25 1015.52 1015.72 1015.83 1015.84 1015.78 1015.65 1015.49 1015.32 1015.19 1015.10 1015.09 1015.14 1015.24 1015.39 1015.57 1015.76 1015.95 1016.13 1016.32 1016.53 1016.77 1017.04 1017.38 1017.78 1018.24 1018.76
1010.79 1010.76 1010.81 1010.94 1011.15 1011.40 1011.67 1011.93 1012.17 1012.40 1012.63 1012.86 1013.12 1013.42 1013.75 1014.10 1014.44 1014.75 1015.00 1015.17 1015.25 1015.23 1015.15 1015.01 1014.86 1014.72 1014.61 1014.56 1014.57 1014.64 1014.75 1014.89 1015.06 1015.24 1015.44 1015.66 1015.90 1016.19 1016.53 1016.93 1017.40 1017.93 1018.52
1010.17 1010.14 1010.18 1010.29 1010.47 1010.68 1010.90 1011.12 1011.32 1011.50 1011.69 1011.90 1012.14 1012.44 1012.78 1013.15 1013.55 1013.92 1014.24 1014.49 1014.65 1014.71 1014.70 1014.62 1014.50 1014.38 1014.28 1014.21 1014.18 1014.21 1014.28 1014.39 1014.53 1014.70 1014.90 1015.14 1015.42 1015.76 1016.16 1016.62 1017.16 1017.75 1018.38
1009.73 1009.69 1009.71 1009.79 1009.91 1010.06 1010.22 1010.36 1010.49 1010.61 1010.74 1010.91 1011.12 1011.40 1011.75 1012.16 1012.60 1013.04 1013.44 1013.79 1014.05 1014.22 1014.31 1014.31 1014.26 1014.18 1014.10 1014.03 1013.99 1013.98 1014.02 1014.10 1014.21 1014.37 1014.58 1014.83 1015.14 1015.52 1015.97 1016.48 1017.06 1017.69 1018.36
1009.49 1009.44 1009.44 1009.47 1009.53 1009.60 1009.66 1009.71 1009.74 1009.78 1009.83 1009.94 1010.11 1010.37 1010.72 1011.14 1011.63 1012.13 1012.62 1013.07 1013.44 1013.73 1013.92 1014.03 1014.07 1014.06 1014.02 1013.98 1013.95 1013.94 1013.96 1014.03 1014.13 1014.28 1014.49 1014.76 1015.09 1015.49 1015.97 1016.51 1017.11 1017.76 1018.43
1009.46 1009.40 1009.35 1009.33 1009.32 1009.29 1009.25 1009.19 1009.12 1009.05 1009.02 1009.04 1009.16 1009.38 1009.71 1010.14 1010.65 1011.20 1011.76 1012.29 1012.77 1013.16 1013.46 1013.68 1013.82 1013.90 1013.94 1013.96 1013.97 1013.99 1014.03 1014.10 1014.21 1014.37 1014.59 1014.86 1015.21 1015.62 1016.10 1016.65 1017.25 1017.89 1018.54
1009.58 1009.49 1009.41 1009.33 1009.24 1009.13 1008.99 1008.82 1008.63 1008.46 1008.32 1008.27 1008.31 1008.48 1008.77 1009.18 1009.68 1010.25 1010.84 1011.43 1011.97 1012.44 1012.85 1013.17 1013.41 1013.60 1013.73 1013.84 1013.92 1014.01 1014.10 1014.21 1014.36 1014.54 1014.77 1015.06 1015.41 1015.82 1016.29 1016.83 1017.40 1018.01 1018.64
1009.76 1009.65 1009.54 1009.42 1009.26 1009.07 1008.84 1008.56 1008.28 1008.00 1007.77 1007.62 1007.58 1007.68 1007.90 1008.26 1008.72 1009.26 1009.85 1010.44 1011.00 1011.53 1012.00 1012.40 1012.75 1013.03 1013.28 1013.49 1013.68 1013.86 1014.04 1014.22 1014.43 1014.66 1014.92 1015.23 1015.59 1016.00 1016.45 1016.96 1017.50 1018.07 1018.66
1009.92 1009.79 1009.66 1009.51 1009.31 1009.06 1008.75 1008.40 1008.03 1007.66 1007.34 1007.11 1006.98 1006.99 1007.13 1007.41 1007.79 1008.26 1008.79 1009.34 1009.89 1010.42 1010.91 1011.37 1011.78 1012.16 1012.51 1012.84 1013.15 1013.44 1013.73 1014.02 1014.31 1014.61 1014.93 1015.27 1015.65 1016.05 1016.50 1016.98 1017.48 1018.02 1018.57
1009.97 1009.85 1009.71 1009.55 1009.32 1009.04 1008.69 1008.28 1007.84 1007.41 1007.03 1006.71 1006.51 1006.43 1006.48 1006.65 1006.93 1007.30 1007.73 1008.20 1008.68 1009.16 1009.64 1010.11 1010.57 1011.01 1011.45 1011.89 1012.31 1012.73 1013.14 1013.54 1013.93 1014.32 1014.71 1015.10 1015.51 1015.93 1016.37 1016.83 1017.32 1017.82 1018.35
1009.89 1009.78 1009.65 1009.49 1009.27 1008.97 1008.60 1008.17 1007.70 1007.24 1006.80 1006.44 1006.17 1006.01 1005.97 1006.03 1006.20 1006.44 1006.75 1007.10 1007.48 1007.88 1008.31 1008.75 1009.21 1009.69 1010.19 1010.70 1011.23 1011.75 1012.27 1012.78 1013.28 1013.76 1014.23 1014.69 1015.14 1015.59 1016.05 1016.51 1017.00 1017.49 1018.01
1009.69 1009.59 1009.48 1009.34 1009.13 1008.84 1008.48 1008.05 1007.59 1007.11 1006.67 1006.28 1005.97 1005.76 1005.64 1005.61 1005.66 1005.78 1005.96 1006.18 1006.43 1006.73 1007.06 1007.44 1007.87 1008.35 1008.87 1009.42 1010.01 1010.61 1011.22 1011.82 1012.40 1012.97 1013.52 1014.05 1014.56 1015.06 1015.55 1016.04 1016.53 1017.04 1017.57
1009.42 1009.34 1009.24 1009.12 1008.93 1008.66 1008.32 1007.93 1007.49 1007.04 1006.61 1006.23 1005.92 1005.67 1005.51 1005.41 1005.37 1005.38 1005.43 1005.52 1005.65 1005.83 1006.06 1006.35 1006.72 1007.15 1007.64 1008.20 1008.80 1009.44 1010.09 1010.75 1011.40 1012.03 1012.65 1013.24 1013.81 1014.36 1014.90 1015.43 1015.95 1016.49 1017.04
1009.15 1009.07 1008.99 1008.87 1008.70 1008.47 1008.17 1007.81 1007.42 1007.02 1006.64 1006.30 1006.00 1005.76 1005.58 1005.44 1005.33 1005.26 1005.21 1005.18 1005.20 1005.26 1005.38 1005.57 1005.84 1006.20 1006.64 1007.16 1007.73 1008.35 1009.01 1009.68 1010.36 1011.02 1011.68 1012.32 1012.94 1013.54 1014.13 1014.70 1015.27 1015.84 1016.41
Thickness
5761 5760 5758 5757 5757 5756 5754 5753 5752 5752 5752 5751 5751 5752 5752 5752 5752 5752 5752 5751 5751 5750 5749 5747 5746 5744 5743 5742 5741 5740 5739 5737 5736 5735 5734 5732 5731 5730 5729 5727 5726 5725 5724
5760 5759 5758 5756 5755 5755 5754 5753 5752 5751 5750 5750 5751 5752 5752 5752 5752 5752 5752 5752 5751 5750 5749 5748 5747 5745 5744 5743 5741 5740 5739 5738 5737 5735 5734 5733 5731 5730 5729 5728 5726 5725 5724
5760 5759 5757 5756 5755 5754 5753 5752 5751 5750 5750 5750 5750 5751 5752 5752 5752 5752 5752 5751 5751 5751 5750 5749 5748 5746 5745 5744 5742 5741 5740 5739 5738 5736 5734 5733 5732 5730 5729 5728 5727 5725 5724
5760 5759 5757 5755 5755 5753 5752 5751 5750 5749 5749 5748 5749 5750 5751 5752 5752 5752 5752 5752 5751 5751 5750 5749 5749 5747 5746 5745 5744 5742 5741 5739 5738 5737 5735 5734 5732 5731 5730 5728 5727 5726 5724
5761 5759 5757 5756 5755 5753 5752 5751 5750 5748 5747 5747 5748 5749 5750 5751 5752 5753 5752 5752 5751 5750 5750 5750 5749 5748 5747 5745 5745 5743 5742 5741 5740 5738 5736 5735 5733 5732 5730 5729 5728 5726 5725
5762 5760 5758 5756 5755 5753 5752 5751 5749 5748 5748 5747 5748 5748 5749 5751 5752 5752 5752 5752 5751 5750 5750 5749 5748 5748 5747 5746 5745 5745 5743 5742 5740 5739 5737 5736 5734 5733 5731 5730 5729 5727 5725
5763 5761 5759 5757 5755 5753 5752 5751 5749 5748 5746 5747 5745 5743 5746 5749 5750 5751 5751 5751 5751 5750 5750 5749 5748 5747 5747 5746 5746 5745 5744 5743 5742 5740 5738 5737 5735 5733 5732 5731 5729 5727 5726
5765 5763 5760 5758 5757 5754 5752 5751 5750 5747 5746 5746 5743 5738 5736 5740 5746 5750 5750 5749 5749 5749 5749 5749 5748 5747 5746 5746 5746 5745 5745 5744 5742 5741 5739 5738 5736 5735 5733 5731 5730 5728 5726
5766 5764 5762 5760 5758 5756 5754 5752 5751 5748 5745 5745 5745 5740 5733 5731 5737 5744 5747 5748 5748 5748 5748 5748 5748 5747 5746 5746 5745 5745 5745 5744 5743 5742 5740 5739 5737 5736 5734 5732 5730 5729 5727
5767 5765 5763 5761 5759 5757 5755 5753 5752 5749 5746 5743 5742 5742 5741 5739 5734 5734 5741 5744 5745 5746 5747 5747 5747 5746 5746 5745 5745 5745 5744 5744 5743 5741 5740 5739 5738 5736 5735 5733 5731 5730 5727
5767 5766 5764 5761 5759 5757 5756 5754 5752 5750 5748 5745 5742 5741 5739 5738 5737 5733 5732 5737 5741 5744 5745 5745 5745 5744 5744 5744 5743 5744 5743 5742 5741 5740 5739 5738 5737 5736 5735 5733 5731 5730 5728
5766 5765 5764 5762 5760 5758 5756 5755 5753 5751 5749 5746 5744 5742 5740 5738 5736 5734 5731 5733 5734 5739 5742 5743 5743 5743 5743 5742 5742 5742 5742 5741 5740 5739 5738 5736 5735 5735 5733 5732 5730 5729 5727
5764 5764 5764 5762 5760 5758 5757 5755 5753 5751 5749 5747 5745 5743 5742 5741 5740 5736 5733 5731 5731 5735 5738 5740 5741 5741 5741 5740 5740 5740 5739 5738 5737 5736 5735 5734 5733 5732 5731 5730 5729 5727 5726
5765 5765 5763 5761 5760 5758 5756 5754 5752 5750 5748 5747 5746 5744 5742 5741 5740 5738 5735 5731 5728 5730 5732 5735 5738 5738 5738 5738 5738 5737 5736 5735 5735 5734 5732 5731 5729 5729 5728 5727 5726 5724 5723
5766 5764 5762 5760 5759 5757 5755 5753 5750 5748 5747 5746 5745 5744 5742 5741 5740 5738 5736 5734 5728 5724 5726 5731 5733 5736 5735 5735 5735 5734 5733 5732 5732 5731 5729 5728 5726 5725 5724 5724 5722 5721 5719
5764 5761 5760 5758 5756 5755 5753 5751 5749 5747 5745 5744 5743 5741 5740 5740 5739 5737 5735 5733 5731 5727 5725 5729 5730 5732 5732 5732 5731 5730 5729 5729 5728 5727 5725 5724 5723 5721 5720 5719 5718 5716 5715
5762 5759 5757 5755 5753 5752 5750 5748 5746 5745 5743 5741 5740 5739 5738 5737 5736 5735 5734 5731 5729 5727 5724 5726 5727 5728 5727 5727 5727 5726 5725 5724 5723 5722 5721 5719 5718 5717 5715 5714 5712 5711 5709
5759 5757 5755 5753 5751 5750 5748 5745 5743 5742 5740 5739 5738 5737 5736 5735 5734 5732 5731 5729 5727 5726 5723 5721 5722 5722 5722 5722 5722 5721 5720 5719 5718 5717 5716 5714 5713 5712 5710 5708 5707 5705 5704
5755 5753 5752 5750 5749 5747 5745 5744 5741 5739 5738 5737 5736 5734 5734 5732 5730 5729 5728 5727 5725 5724 5721 5719 5718 5718 5717 5717 5716 5715 5715 5713 5713 5711 5710 5708 5707 5706 5705 5704 5702 5700 5699
5751 5749 5747 5746 5745 5743 5741 5740 5738 5736 5735 5734 5733 5732 5730 5729 5727 5726 5725 5723 5722 5719 5717 5715 5713 5712 5711 5711 5710 5708 5707 5707 5706 5706 5704 5703 5702 5700 5700 5698 5697 5695 5693
5747 5745 5743 5741 5739 5738 5737 5736 5734 5732 5729 5729 5729 5728 5727 5726 5725 5724 5722 5719 5717 5714 5712 5710 5708 5706 5705 5704 5703 5703 5702 5701 5700 5699 5698 5697 5696 5695 5694 5692 5691 5689 5687
5740 5739 5737 5735 5733 5733 5732 5731 5729 5727 5725 5723 5722 5722 5721 5720 5720 5719 5717 5716 5714 5710 5708 5705 5703 5701 5701 5699 5698 5697 5695 5693 5692 5694 5692 5691 5690 5689 5688 5687 5685 5684 5681
5733 5731 5731 5729 5728 5728 5727 5725 5723 5721 5719 5717 5715 5715 5714 5714 5713 5711 5709 5708 5707 5706 5704 5702 5699 5698 5696 5695 5692 5690 5689 5688 5688 5688 5685 5684 5684 5682 5682 5681 5680 5677 5675
5726 5724 5723 5722 5720 5719 5718 5717 5716 5713 5711 5710 5709 5707 5706 5705 5704 5703 5701 5699 5698 5697 5696 5695 5694 5694 5692 5690 5688 5686 5684 5682 5681 5680 5679 5677 5677 5676 5676 5674 5673 5671 5669
5718 5717 5715 5714 5713 5711 5710 5708 5706 5703 5701 5700 5699 5699 5698 5697 5695 5693 5691 5690 5688 5688 5688 5687 5686 5685 5684 5682 5680 5678 5676 5674 5673 5673 5671 5670 5670 5668 5668 5667 5666 5664 5662
5710 5709 5707 5706 5704 5703 5702 5700 5698 5694 5691 5690 5690 5690 5690 5689 5687 5685 5682 5681 5679 5679 5678 5678 5676 5675 5674 5673 5672 5671 5669 5667 5665 5665 5665 5663 5662 5660 5660 5660 5658 5657 5655